Location: Ferchesar
(52.6477°N, 12.4298°E)
Time: 05:39:36
(UTC+02:00)

Vanguard 3 - Pass Details

Date: 04 March 2021
Orbit: 508 x 3262 km, 33.3° (Epoch: 15 April)

Event Time Altitude Azimuth Distance (km) Brightness Sun altitude
Rises 14:41:24 0° 220° (SW) 7,198 13.4 24.1°
Reaches altitude 10° 14:47:17 10° 211° (SSW) 6,188 13.5 23.6°
Maximum altitude 15:02:09 29° 161° (SSE) 4,313 11.4 22.1°
Drops below altitude 10° 15:13:48 10° 110° (ESE) 4,838 10.9 20.8°
Sets 15:17:38 0° 99° (E) 5,465 11.0 20.4°
